Location: Pedholt
(56.0260°N, 10.2097°E)
Time: 06:20:11
(UTC+00:00)

BREEZE-M DEB (TANK) - Pass Details

Date: 14 July 2020
Orbit: 428 x 13237 km, 46.0° (Epoch: 14 August)

Event Time Altitude Azimuth Distance (km) Brightness Sun altitude
Rises 00:08:07 0° 245° (WSW) 6,431 7.9 -11.8°
Reaches altitude 10° 00:14:17 10° 237° (WSW) 3,883 6.7 -11.6°
Maximum altitude 00:20:42 26° 183° (S) 1,545 4.5 -11.4°
Drops below altitude 10° 00:23:53 10° 124° (ESE) 1,831 5.3 -11.3°
Sets 00:25:41 0° 108° (ESE) 2,503 6.1 -11.3°
